Location: Cactus School
(34.5700°N, 118.0931°W)
Time: 13:15:55
(UTC-08:00)

Vanguard 3 - Visible Passes

Search period start: 21 November 2017 00:00
Search period end: 01 December 2017 00:00
Orbit: 509 x 3263 km, 33.4° (Epoch: 21 November)

Date Brightness Start Highest point End Pass type
(mag) Time Alt. Az. Time Alt. Az. Time Alt. Az.
21 Nov 10.9 02:11:34 23° S 02:11:34 23° S 02:17:23 10° SSE visible
21 Nov 8.8 17:51:47 10° SW 17:59:06 55° SSE 18:07:55 21° E visible
21 Nov 9.0 20:02:32 10° W 20:12:29 84° SSW 20:12:29 84° SSW visible
21 Nov 10.8 22:14:52 10° W 22:17:03 19° W 22:17:03 19° W visible
22 Nov 11.3 01:01:53 14° SE 01:01:53 14° SE 01:03:30 10° SE visible
22 Nov 11.0 03:06:28 17° SSW 03:06:28 17° SSW 03:11:52 10° S visible
22 Nov 8.7 18:49:16 10° WSW 18:57:37 77° SSE 19:02:40 44° E visible
22 Nov 9.7 21:00:50 10° W 21:07:14 47° W 21:07:14 47° W visible
22 Nov11.423:52:09SE23:52:09SE23:11:48WNWvisible
23 Nov 11.2 01:56:43 17° S 01:56:43 17° S 02:00:10 10° SSE visible
23 Nov 8.6 17:36:31 10° SW 17:43:14 59° SSE 17:52:52 17° E visible
23 Nov 8.9 19:47:15 10° W 19:56:46 85° S 19:57:26 82° ESE visible
23 Nov 10.6 21:59:19 10° W 22:02:00 22° W 22:02:00 22° W visible
24 Nov 11.3 02:51:28 13° SSW 02:51:28 13° SSW 02:53:41 10° SSW visible
24 Nov 8.6 18:34:04 10° WSW 18:41:46 79° S 18:47:37 37° E visible
24 Nov 9.5 20:45:28 10° W 20:52:11 52° W 20:52:11 52° W visible
25 Nov 11.4 01:41:35 12° S 01:41:35 12° S 01:42:36 10° S visible
25 Nov 8.4 17:21:18 10° WSW 17:27:30 63° SSE 17:37:50 12° E visible
25 Nov 8.8 19:32:01 10° W 19:40:49 85° S 19:42:24 73° ESE visible
25 Nov 10.4 21:43:50 10° W 21:46:58 24° W 21:46:58 24° W visible
26 Nov 8.4 18:18:56 10° WSW 18:26:01 81° S 18:32:37 31° E visible
26 Nov 9.2 20:30:09 10° W 20:37:11 59° W 20:37:11 59° W visible
27 Nov 8.2 17:06:09 10° WSW 17:11:52 67° SSE 17:22:12 10° E visible
27 Nov 8.6 19:16:50 10° W 19:24:58 84° S 19:27:26 62° ESE visible
27 Nov 10.2 21:28:26 10° W 21:32:00 27° W 21:32:00 27° W visible
28 Nov 8.2 18:03:49 10° W 18:10:21 83° S 18:17:42 25° E visible
28 Nov 9.0 20:14:53 10° W 20:22:17 65° WSW 20:22:17 65° WSW visible
29 Nov 7.9 16:51:03 10° WSW 16:56:20 71° SSE 17:05:45 10° E visible
29 Nov 8.5 19:01:41 10° W 19:09:10 82° S 19:12:36 52° ESE visible
29 Nov 10.0 21:13:08 10° W 21:17:11 31° W 21:17:11 31° W visible
30 Nov 8.0 17:48:44 10° W 17:54:47 83° S 18:02:57 19° E visible
30 Nov 8.8 19:59:41 10° W 20:07:33 67° SSW 20:07:33 67° SSW visible
30 Nov 10.9 22:11:55 10° W 22:12:07 11° W 22:12:07 11° W visible
